Wind_Speed
121 126 129 129 132 127 123 113 101 88 79 57 37 27 15 16 17 11 29 46 53 52 48 44 40 36 34 32 30 26 23 20 17 14 12 8 4 5 9 14 19 25 32 36 40 46 49 50 54 61 66 71 70 70
122 123 124 131 129 119 122 110 96 88 71 53 35 21 22 13 23 25 32 46 50 47 45 42 37 33 32 32 27 24 22 19 16 15 11 9 5 5 8 15 20 24 30 35 43 45 50 49 50 54 62 67 71 71
121 129 130 128 127 129 119 104 94 79 71 54 37 23 27 18 25 29 39 46 48 45 43 38 34 33 32 29 27 24 22 19 17 14 12 11 7 6 9 13 19 23 29 34 41 45 49 54 51 55 55 62 65 68
126 134 131 132 136 125 113 96 84 74 67 57 34 28 33 31 26 31 41 44 46 45 43 38 35 35 32 30 29 25 22 19 16 13 13 13 11 9 10 13 18 23 28 34 39 43 47 53 52 55 50 54 60 66
136 135 134 141 131 121 106 91 79 72 64 55 33 32 36 36 35 33 45 44 46 45 43 39 37 36 31 32 30 26 23 19 17 16 15 15 14 12 11 13 19 23 26 32 38 42 47 50 54 50 51 48 56 63
138 140 143 144 128 111 97 85 80 69 61 55 35 33 35 44 42 41 49 46 48 48 44 42 42 36 33 32 30 26 24 20 19 20 17 17 16 15 12 14 18 22 27 31 36 41 46 50 54 54 51 56 57 64
142 147 143 137 118 107 89 78 77 70 60 54 41 36 41 48 46 48 55 58 54 50 47 44 40 38 37 34 30 26 23 22 22 21 18 18 19 17 15 15 19 22 27 30 35 42 46 49 53 55 56 53 59 65
148 147 141 119 108 97 85 77 78 71 57 55 48 41 47 51 51 55 61 57 58 55 51 46 43 41 39 34 31 27 25 23 22 21 20 20 20 18 17 16 19 22 26 31 35 41 46 49 53 55 60 56 60 63
149 148 125 111 100 90 82 78 76 68 56 52 52 46 49 53 56 59 67 66 63 58 53 52 46 44 41 36 33 30 27 25 24 24 24 23 22 19 19 18 20 22 26 31 36 42 46 48 56 58 59 57 64 66
145 121 108 100 92 85 81 78 70 64 53 51 53 51 50 53 68 68 69 75 67 63 57 52 48 45 45 39 34 30 27 29 28 26 26 25 23 21 20 18 21 24 27 30 36 41 46 51 57 60 61 63 67 67
123 109 100 91 85 83 81 76 67 56 47 49 54 56 54 61 78 76 75 75 67 65 57 52 49 46 44 41 37 32 29 32 33 30 26 25 23 21 19 19 22 26 28 32 36 40 46 52 58 61 63 68 71 73
110 99 90 84 81 83 78 73 62 51 47 54 58 59 62 69 84 79 70 69 64 64 59 54 51 48 45 42 36 30 30 33 30 28 25 24 19 19 19 19 23 27 30 34 37 41 46 53 57 63 67 69 71 75
104 93 80 77 78 78 74 67 56 49 53 53 55 60 67 73 77 72 54 53 58 59 57 57 53 50 47 42 36 33 32 32 27 26 22 21 17 18 20 22 25 29 33 36 38 41 46 53 58 63 69 71 72 79
92 79 73 72 74 70 67 58 54 53 51 47 52 56 58 56 65 58 59 65 67 73 69 64 56 51 46 42 33 32 32 28 27 24 21 19 20 21 23 27 29 32 33 37 40 44 48 54 59 64 69 72 74 82
77 71 69 70 66 62 54 52 52 50 46 45 49 51 49 54 67 72 78 74 77 78 70 64 58 53 47 40 36 32 29 26 28 22 22 22 23 23 27 30 32 34 33 37 43 46 51 55 61 66 71 74 75 80
68 67 67 64 58 49 47 47 45 41 40 41 46 50 58 71 76 81 82 82 83 77 70 62 56 50 42 37 38 33 31 32 26 28 24 26 26 27 30 32 34 36 35 38 44 49 53 57 63 68 75 77 79 81
65 64 62 59 50 42 43 40 39 37 37 41 51 63 74 82 85 88 90 87 81 75 66 60 55 50 42 40 40 36 36 30 30 30 28 29 29 30 31 34 35 37 39 44 49 51 57 62 67 68 76 79 81 87
61 58 53 48 41 40 38 36 35 33 41 53 59 72 85 85 89 92 92 83 74 71 67 61 55 48 44 45 50 40 31 32 35 32 32 32 34 34 35 38 40 42 44 48 53 55 60 64 69 73 78 78 85 85
57 48 43 37 38 36 33 31 32 41 48 55 75 83 90 90 91 94 91 76 75 73 67 60 54 48 47 51 45 35 34 34 36 36 35 33 37 38 40 42 44 46 48 52 56 59 63 68 72 77 82 82 86 87
48 43 35 33 34 32 30 32 41 51 62 66 77 91 95 95 93 92 80 74 74 73 65 59 55 54 53 48 45 40 36 36 39 41 38 40 41 42 43 46 48 49 51 55 58 61 65 72 76 79 85 86 86 92
43 38 35 32 30 31 30 38 48 59 66 77 84 94 99 97 92 84 78 76 75 70 65 62 59 57 52 48 43 39 38 40 46 44 43 42 44 42 45 49 50 53 55 58 60 65 70 75 80 84 86 89 96 94
38 37 35 32 32 33 36 41 49 59 68 81 92 95 96 94 93 88 85 78 74 72 70 67 63 60 49 44 40 41 43 45 44 44 45 43 42 44 48 51 52 57 60 62 65 69 75 79 83 86 89 91 99 96
35 36 35 34 35 39 45 51 57 63 74 84 95 97 96 93 91 92 84 79 77 72 71 67 62 57 48 45 44 45 45 46 46 47 48 48 50 52 54 54 56 61 66 69 71 74 79 83 86 86 86 95 103 96
34 34 33 35 40 46 51 57 62 71 82 88 95 96 96 94 93 88 83 81 80 72 67 65 62 54 51 49 48 46 47 49 46 47 50 53 54 54 57 60 62 67 70 74 77 80 84 87 91 85 90 96 101 105
30 28 33 37 44 49 57 63 68 80 90 94 94 97 97 96 91 86 82 79 75 70 66 62 62 57 54 52 49 49 49 49 50 50 54 57 55 56 60 64 67 71 75 78 81 85 88 90 91 87 102 94 103 107
24 29 36 44 49 53 58 63 74 89 95 98 97 96 96 91 88 84 79 77 75 71 67 66 63 59 57 59 55 52 53 56 55 56 58 61 61 62 64 68 71 75 79 82 85 88 92 94 89 100 99 102 105 107
32 38 43 45 51 58 64 68 76 89 95 97 96 94 90 87 84 81 78 78 73 71 71 65 61 60 61 60 59 59 59 59 62 63 66 67 66 68 70 72 76 79 83 85 88 94 93 92 96 100 103 103 107 107
40 43 46 51 54 58 66 75 83 91 95 93 90 89 86 85 84 83 80 77 74 73 72 69 67 66 65 65 65 64 63 65 67 70 70 70 71 71 74 77 80 83 86 88 93 91 96 96 104 102 107 108 102 103
47 49 53 58 60 62 70 79 87 91 91 90 90 88 84 85 85 84 82 80 78 75 73 74 72 70 71 72 68 66 68 70 73 73 74 75 75 77 79 82 83 87 89 93 92 97 98 100 101 105 106 102 107 100
51 51 56 61 64 70 82 90 92 94 94 92 88 85 86 87 86 83 82 80 76 74 71 72 74 74 73 72 70 70 72 74 75 77 78 80 81 82 84 85 87 92 95 96 97 97 97 101 99 107 115 108 101 95
54 56 60 66 74 78 86 91 94 95 94 90 89 91 90 88 85 83 81 79 77 75 75 76 75 76 76 76 76 76 76 77 78 80 81 82 84 86 88 90 95 96 96 95 100 97 97 102 109 106 101 98 93 88
57 61 68 74 80 84 87 89 91 90 90 92 92 91 89 87 85 84 82 81 78 78 78 79 80 79 78 78 79 80 80 80 81 84 85 87 89 91 94 96 96 94 96 98 101 101 102 110 102 96 96 91 87 81
68 70 73 79 84 86 89 92 94 96 97 97 95 94 92 91 89 87 84 82 81 80 80 80 81 82 82 82 82 83 84 85 87 89 90 92 94 96 96 94 94 95 97 97 101 102 105 105 101 96 89 81 77 72
Wind_Direction
322 326 328 330 331 333 335 336 337 339 346 347 334 328 322 185 195 199 188 179 176 176 171 172 178 177 181 185 184 181 186 186 189 193 198 208 236 314 332 351 359 3 5 7 12 11 6 6 1 6 0 358 3 8
319 321 326 328 330 326 334 333 333 336 340 341 329 288 303 264 211 200 190 186 184 180 177 179 179 182 189 187 196 191 194 194 195 201 204 218 247 298 326 340 352 0 4 5 8 9 4 4 6 3 356 358 358 2
319 322 321 323 328 327 325 330 329 330 334 335 324 260 267 283 239 210 192 190 189 186 184 183 181 186 195 192 196 199 202 204 204 209 214 226 244 291 323 331 343 353 0 6 9 8 4 3 6 358 1 2 359 2
316 315 321 321 321 322 324 327 328 326 327 328 313 265 244 252 253 229 201 197 194 194 190 187 189 194 198 200 200 201 208 212 212 219 227 236 251 279 312 329 339 347 357 2 6 4 1 2 359 4 3 2 358 357
313 315 316 316 320 319 318 322 320 318 319 320 296 281 236 241 244 239 210 203 199 198 197 192 195 203 205 205 207 207 208 213 220 230 237 246 256 270 298 321 328 338 351 358 2 1 359 3 359 357 358 360 5 4
308 311 312 313 314 315 316 318 316 315 311 311 290 276 244 229 237 232 214 210 204 201 201 199 200 203 209 211 212 212 210 217 225 234 241 252 259 261 285 309 319 334 346 354 354 359 358 359 358 355 359 5 3 10
308 309 312 311 311 311 314 313 308 307 305 303 284 262 254 226 229 235 221 211 207 202 203 206 204 205 213 214 214 217 216 226 231 237 246 260 259 258 274 300 314 330 342 348 351 355 355 355 355 358 2 357 2 4
305 306 308 306 307 308 309 307 301 302 299 294 273 254 249 232 220 227 220 215 208 206 204 208 207 208 215 214 215 218 225 232 238 243 252 261 261 263 271 290 305 322 337 341 347 352 350 353 353 353 360 359 3 5
302 303 302 303 304 304 305 300 298 298 292 283 262 249 243 238 213 221 217 215 211 207 207 212 211 212 215 214 219 226 230 240 245 249 253 260 260 265 273 290 303 318 332 338 342 348 345 347 348 350 355 1 3 6
299 300 298 300 300 301 298 297 297 294 281 269 258 249 237 233 213 215 217 213 212 206 207 209 212 214 218 218 222 226 232 241 248 248 252 258 257 263 275 294 302 313 327 336 337 341 343 346 346 348 352 1 360 359
297 295 297 297 297 295 295 295 295 283 267 259 250 244 232 221 212 211 212 213 212 204 206 211 216 219 220 222 224 227 231 240 241 243 247 252 253 260 276 291 301 312 323 331 333 338 340 343 343 344 349 357 358 357
293 293 293 293 292 292 293 294 290 274 262 251 240 229 220 213 213 209 203 205 206 204 206 211 215 220 223 226 227 230 233 236 237 240 243 244 249 264 282 292 299 309 319 327 332 334 336 338 340 341 345 350 355 353
290 290 290 288 289 290 293 291 279 267 259 249 234 225 215 210 212 206 195 199 203 205 211 217 219 221 226 230 230 233 236 239 239 240 242 245 256 273 288 297 301 306 314 325 331 332 332 335 337 339 342 347 350 352
286 286 285 285 287 291 291 280 268 263 257 243 227 219 218 212 208 190 196 197 200 210 213 214 216 218 223 228 231 239 239 237 240 243 247 252 268 277 289 293 298 301 311 319 327 330 331 332 335 337 339 346 345 348
281 284 284 284 289 288 277 266 264 259 247 230 220 214 211 202 191 190 197 195 202 209 209 211 212 217 222 226 232 228 227 238 244 252 255 267 273 283 284 288 294 303 313 318 323 325 327 331 332 336 338 343 344 347
282 281 281 285 287 279 265 263 256 240 226 216 210 204 193 189 184 191 197 200 204 206 205 207 211 216 221 226 231 226 226 239 245 253 261 271 277 277 283 288 296 301 309 313 317 322 325 328 333 334 338 341 343 343
277 278 281 284 280 268 263 254 238 223 213 205 198 193 187 183 185 192 198 203 203 203 205 207 210 215 220 227 228 224 230 237 246 253 261 269 273 279 285 291 295 302 312 317 319 323 324 328 331 333 336 338 342 341
276 278 280 278 268 260 255 239 225 215 203 192 194 188 185 182 188 194 201 203 201 204 206 208 210 213 217 223 224 228 234 239 245 253 260 267 276 281 286 293 301 308 313 315 318 322 324 327 330 331 334 337 341 341
275 277 274 264 255 253 237 224 214 202 199 199 186 187 182 183 190 196 201 199 201 204 206 207 210 214 220 225 228 232 235 242 248 252 260 272 279 283 289 296 303 309 313 315 318 320 325 326 327 330 334 337 338 338
274 270 260 245 247 240 224 210 199 192 187 191 186 183 181 185 191 197 199 199 202 206 207 208 210 216 223 228 232 234 239 243 250 257 264 273 276 282 291 298 303 308 313 314 318 321 323 324 326 329 332 336 336 338
259 254 248 242 234 225 209 203 193 188 191 186 189 184 183 185 192 198 200 200 204 205 207 209 214 218 222 226 228 235 241 249 255 260 268 275 278 287 296 300 306 309 314 315 318 321 323 324 325 329 332 333 335 337
246 245 242 234 220 208 199 196 193 193 191 188 187 185 185 188 191 198 203 204 207 206 208 211 216 220 223 228 233 240 247 252 258 264 269 277 282 289 292 297 305 308 312 314 317 322 322 323 326 328 332 333 336 335
238 239 236 222 207 200 195 195 192 191 189 188 185 184 186 189 193 200 203 206 210 211 212 215 220 223 226 231 239 242 247 256 262 267 274 280 286 290 293 301 306 308 309 312 314 317 319 321 325 327 329 332 334 335
231 229 220 208 199 195 195 193 189 189 189 189 185 183 187 191 198 203 205 209 212 215 217 220 222 223 229 234 241 247 253 259 267 270 275 281 286 290 294 299 303 305 307 310 314 316 317 320 322 326 327 330 335 334
221 210 205 199 196 194 194 192 186 185 187 187 186 187 190 194 199 204 208 212 216 219 220 223 226 230 236 241 244 250 258 264 271 274 278 282 286 291 294 297 300 302 306 310 313 313 317 318 324 326 324 328 334 331
202 195 193 194 194 191 190 187 185 184 186 187 188 190 194 196 200 205 210 214 217 221 223 228 231 235 241 246 249 255 262 267 274 278 281 283 286 290 293 297 300 302 306 309 312 313 315 319 322 324 328 330 329 332
189 192 191 190 187 183 184 186 187 186 186 189 192 194 196 198 202 208 212 217 220 223 227 229 234 241 246 250 255 258 263 268 272 277 280 283 286 290 293 297 300 302 306 309 310 312 315 319 322 324 327 329 330 328
184 185 184 181 179 181 185 187 189 187 189 192 192 193 197 203 206 211 215 218 223 227 231 234 239 243 248 252 257 260 264 267 271 274 279 283 286 290 293 297 300 303 306 308 309 314 315 320 323 326 326 328 327 325
177 177 178 177 178 182 186 189 189 189 190 192 193 194 200 207 212 215 218 220 224 229 232 236 240 245 249 252 255 260 264 268 272 275 279 282 287 290 293 297 301 304 304 306 310 314 317 321 323 323 326 323 324 322
173 177 178 178 179 183 185 187 189 191 190 191 196 200 205 211 215 219 222 223 227 230 235 239 243 246 250 253 258 262 265 270 273 276 279 283 287 291 294 297 299 301 306 307 312 315 318 321 321 322 325 324 320 319
176 178 179 180 181 184 186 188 191 191 192 195 200 206 210 213 216 220 223 226 229 233 237 240 243 247 250 254 258 261 265 270 274 278 282 285 287 290 295 298 299 302 305 309 313 317 320 321 322 322 322 321 318 319
180 181 181 182 183 185 188 189 190 192 196 202 206 210 213 216 219 221 224 227 231 236 239 242 246 248 252 256 261 265 268 272 276 279 282 284 288 292 294 298 301 303 308 311 314 317 320 320 319 318 320 317 318 320
181 181 183 184 184 186 189 191 194 198 202 206 210 214 216 219 222 225 228 231 234 238 241 244 247 251 255 259 262 265 269 272 275 279 283 286 288 292 296 297 302 307 310 314 314 315 317 316 319 315 317 318 319 320
Height
10535 10526 10519 10511 10499 10492 10486 10477 10465 10456 10452 10448 10440 10436 10433 10432 10434 10438 10443 10447 10450 10454 10457 10464 10471 10476 10481 10486 10490 10493 10496 10499 10503 10505 10507 10508 10509 10508 10507 10504 10502 10498 10493 10487 10481 10474 10465 10453 10443 10428 10417 10403 10394 10384
10527 10517 10507 10507 10499 10485 10480 10477 10465 10455 10454 10451 10447 10443 10440 10440 10438 10440 10448 10453 10457 10459 10463 10468 10473 10477 10482 10486 10491 10493 10496 10498 10501 10503 10504 10506 10506 10506 10504 10501 10498 10496 10492 10485 10478 10471 10462 10455 10444 10430 10418 10403 10391 10381
10512 10509 10503 10491 10490 10484 10469 10471 10461 10454 10446 10446 10448 10443 10439 10442 10443 10444 10448 10453 10458 10462 10466 10471 10474 10478 10481 10485 10489 10492 10494 10497 10499 10500 10501 10503 10503 10503 10502 10499 10496 10493 10489 10484 10477 10469 10460 10452 10441 10428 10415 10401 10391 10382
10498 10491 10487 10483 10478 10474 10463 10458 10455 10445 10440 10442 10439 10437 10436 10439 10441 10446 10448 10453 10458 10462 10466 10470 10474 10476 10479 10483 10486 10488 10492 10495 10496 10497 10499 10499 10500 10500 10499 10497 10494 10491 10486 10481 10474 10467 10460 10450 10441 10430 10416 10405 10394 10383
10483 10478 10471 10469 10468 10460 10452 10443 10444 10436 10430 10431 10429 10432 10429 10432 10436 10442 10448 10450 10455 10462 10465 10469 10473 10475 10477 10480 10483 10486 10489 10491 10492 10494 10495 10495 10496 10496 10495 10492 10490 10487 10483 10478 10471 10464 10458 10451 10441 10430 10418 10409 10398 10385
10462 10459 10456 10448 10450 10445 10441 10431 10421 10423 10418 10415 10419 10418 10420 10422 10428 10435 10442 10447 10450 10458 10464 10465 10467 10472 10474 10478 10481 10484 10485 10487 10488 10490 10491 10491 10492 10492 10491 10489 10486 10483 10479 10475 10468 10462 10454 10446 10440 10430 10419 10405 10395 10385
10445 10437 10436 10428 10428 10424 10421 10415 10406 10404 10404 10402 10403 10405 10407 10409 10416 10427 10435 10435 10441 10448 10456 10460 10464 10467 10470 10473 10477 10479 10481 10483 10485 10486 10487 10488 10488 10487 10486 10485 10482 10479 10475 10471 10464 10458 10452 10444 10437 10427 10413 10403 10393 10382
10423 10414 10415 10409 10406 10402 10399 10394 10388 10384 10386 10384 10385 10390 10391 10396 10404 10414 10420 10427 10433 10439 10447 10456 10458 10462 10466 10469 10472 10474 10476 10478 10481 10482 10483 10484 10483 10482 10481 10480 10478 10474 10470 10465 10460 10454 10448 10440 10433 10424 10413 10399 10391 10377
10398 10397 10388 10385 10382 10376 10373 10369 10366 10363 10362 10364 10364 10370 10375 10382 10391 10400 10405 10413 10421 10431 10441 10446 10451 10456 10461 10465 10466 10469 10472 10474 10475 10477 10479 10479 10478 10477 10476 10475 10472 10468 10465 10461 10455 10448 10442 10435 10427 10417 10407 10395 10384 10373
10372 10368 10363 10360 10357 10351 10345 10341 10340 10339 10339 10340 10346 10348 10359 10368 10372 10379 10386 10397 10407 10420 10430 10438 10446 10450 10454 10458 10461 10464 10467 10468 10470 10472 10474 10474 10473 10472 10470 10469 10465 10462 10458 10454 10450 10443 10437 10429 10420 10412 10401 10388 10376 10365
10347 10341 10337 10334 10331 10323 10317 10313 10311 10312 10315 10320 10324 10323 10335 10341 10347 10351 10363 10380 10398 10413 10425 10432 10439 10443 10449 10451 10454 10457 10460 10462 10464 10467 10469 10469 10468 10467 10465 10463 10459 10456 10452 10448 10443 10437 10430 10422 10415 10405 10393 10380 10368 10357
10315 10312 10310 10308 10302 10294 10289 10285 10283 10286 10289 10292 10291 10291 10299 10306 10315 10330 10348 10369 10393 10407 10416 10424 10430 10435 10440 10444 10448 10451 10454 10456 10459 10460 10462 10462 10463 10461 10459 10457 10454 10450 10446 10442 10437 10431 10423 10416 10407 10396 10385 10373 10361 10350
10284 10284 10281 10279 10274 10268 10262 10257 10256 10260 10260 10261 10265 10271 10273 10278 10297 10328 10356 10380 10397 10406 10410 10415 10420 10425 10430 10437 10440 10443 10447 10449 10453 10453 10454 10455 10455 10454 10452 10449 10447 10444 10440 10435 10430 10423 10416 10408 10400 10389 10378 10366 10355 10344
10255 10253 10252 10250 10247 10243 10238 10231 10231 10234 10234 10244 10250 10256 10266 10282 10307 10340 10358 10372 10384 10383 10389 10399 10408 10416 10423 10428 10433 10439 10440 10443 10445 10446 10447 10448 10447 10447 10444 10441 10439 10436 10433 10427 10421 10414 10408 10400 10391 10380 10371 10360 10348 10335
10225 10225 10224 10221 10222 10219 10213 10210 10210 10213 10219 10227 10235 10246 10263 10286 10309 10322 10337 10353 10356 10362 10378 10390 10399 10407 10412 10422 10427 10431 10433 10437 10436 10439 10439 10439 10439 10438 10435 10432 10430 10428 10424 10418 10412 10406 10399 10391 10381 10372 10362 10351 10339 10328
10199 10199 10196 10194 10195 10194 10190 10190 10193 10198 10202 10212 10224 10240 10257 10276 10290 10308 10323 10331 10338 10354 10368 10382 10392 10401 10408 10416 10421 10424 10426 10425 10429 10429 10431 10431 10431 10429 10426 10424 10422 10419 10414 10408 10403 10397 10389 10380 10371 10361 10352 10341 10329 10318
10174 10175 10174 10172 10170 10172 10170 10173 10177 10182 10191 10204 10215 10226 10246 10257 10275 10291 10303 10314 10330 10349 10364 10377 10385 10393 10401 10407 10412 10415 10413 10418 10420 10420 10422 10423 10422 10420 10418 10416 10412 10409 10403 10397 10392 10385 10378 10370 10361 10350 10341 10330 10317 10307
10149 10152 10156 10153 10153 10154 10156 10159 10165 10173 10184 10194 10205 10218 10232 10248 10265 10280 10292 10309 10333 10345 10356 10366 10375 10384 10392 10396 10396 10401 10409 10410 10409 10411 10413 10413 10413 10410 10407 10405 10402 10398 10392 10387 10382 10375 10367 10359 10349 10339 10329 10318 10306 10293
10126 10132 10136 10139 10140 10140 10143 10146 10155 10163 10174 10181 10191 10210 10222 10240 10257 10270 10284 10305 10319 10332 10345 10358 10367 10377 10382 10383 10390 10396 10398 10400 10401 10402 10403 10403 10402 10399 10396 10394 10391 10387 10381 10376 10370 10363 10355 10346 10336 10327 10317 10304 10292 10279
10110 10113 10119 10125 10125 10128 10132 10138 10146 10154 10161 10176 10190 10203 10218 10235 10251 10266 10284 10300 10313 10326 10340 10354 10360 10363 10369 10375 10381 10385 10388 10390 10392 10392 10393 10392 10390 10387 10385 10383 10380 10375 10370 10364 10358 10351 10342 10332 10322 10312 10301 10290 10278 10266
10095 10099 10104 10109 10114 10118 10124 10132 10139 10146 10157 10171 10185 10195 10210 10230 10248 10265 10278 10292 10305 10322 10332 10339 10346 10353 10360 10367 10372 10375 10378 10380 10380 10382 10382 10381 10379 10376 10373 10370 10367 10362 10357 10351 10345 10337 10328 10318 10308 10297 10286 10274 10263 10249
10084 10086 10090 10096 10103 10109 10116 10126 10136 10146 10155 10166 10182 10195 10209 10224 10239 10255 10268 10283 10296 10309 10321 10329 10338 10344 10352 10358 10362 10365 10367 10368 10370 10370 10370 10369 10367 10364 10361 10357 10353 10349 10343 10338 10330 10322 10313 10304 10293 10283 10271 10259 10247 10234
10073 10075 10079 10086 10093 10100 10108 10117 10128 10140 10154 10167 10178 10192 10208 10223 10237 10246 10261 10277 10289 10300 10310 10320 10328 10335 10342 10347 10350 10352 10354 10356 10358 10358 10357 10355 10354 10350 10347 10343 10339 10335 10329 10323 10316 10308 10299 10288 10278 10267 10255 10244 10231 10216
10062 10065 10069 10077 10085 10092 10102 10112 10124 10138 10152 10164 10179 10195 10208 10222 10231 10243 10259 10269 10280 10292 10302 10310 10318 10324 10330 10335 10338 10341 10343 10344 10344 10345 10344 10342 10340 10336 10333 10329 10324 10320 10314 10308 10301 10292 10283 10273 10262 10252 10241 10226 10213 10200
10051 10057 10064 10070 10078 10086 10095 10106 10119 10134 10152 10168 10181 10191 10203 10214 10228 10242 10253 10263 10274 10284 10294 10301 10307 10314 10319 10323 10327 10328 10330 10331 10331 10331 10329 10327 10325 10322 10318 10314 10310 10305 10299 10293 10285 10276 10266 10255 10247 10236 10223 10210 10196 10181
10043 10051 10059 10063 10070 10080 10093 10106 10119 10133 10148 10162 10176 10187 10198 10212 10226 10238 10248 10259 10268 10277 10285 10292 10298 10303 10308 10312 10315 10316 10317 10317 10317 10316 10314 10312 10310 10306 10303 10298 10294 10289 10283 10277 10270 10259 10249 10239 10228 10218 10204 10193 10177 10162
10038 10043 10051 10060 10070 10080 10092 10104 10116 10130 10144 10159 10172 10184 10198 10212 10225 10234 10243 10252 10260 10268 10275 10282 10288 10293 10297 10300 10301 10303 10303 10303 10303 10301 10299 10296 10294 10290 10287 10283 10278 10273 10267 10261 10252 10242 10231 10221 10211 10197 10184 10172 10160 10144
10034 10041 10050 10059 10070 10082 10092 10105 10117 10129 10142 10156 10171 10187 10201 10212 10220 10227 10237 10245 10253 10259 10265 10271 10277 10281 10284 10286 10288 10289 10290 10289 10288 10286 10283 10280 10277 10274 10271 10267 10262 10257 10251 10243 10233 10224 10214 10203 10192 10177 10164 10152 10137 10124
10032 10040 10049 10058 10068 10081 10093 10105 10119 10132 10146 10161 10175 10187 10197 10205 10212 10220 10228 10236 10243 10250 10256 10261 10265 10268 10271 10273 10274 10275 10275 10274 10273 10270 10267 10264 10262 10259 10255 10250 10246 10240 10232 10224 10214 10206 10194 10184 10171 10158 10145 10130 10118 10103
10034 10042 10050 10059 10070 10082 10095 10107 10118 10130 10144 10157 10169 10181 10187 10194 10202 10210 10218 10226 10233 10240 10245 10249 10252 10255 10256 10258 10259 10259 10259 10257 10255 10253 10251 10249 10246 10242 10238 10234 10228 10221 10214 10204 10197 10186 10176 10165 10150 10139 10125 10111 10099 10084
10036 10043 10052 10061 10070 10081 10093 10105 10118 10130 10143 10154 10162 10168 10176 10185 10193 10200 10208 10216 10222 10227 10232 10235 10237 10239 10241 10242 10243 10243 10242 10241 10239 10238 10236 10234 10229 10225 10221 10216 10210 10203 10196 10187 10177 10166 10156 10144 10133 10120 10107 10095 10082 10069
10040 10047 10054 10063 10073 10084 10096 10109 10122 10133 10141 10146 10152 10159 10167 10175 10182 10189 10196 10202 10208 10212 10216 10219 10221 10223 10225 10226 10226 10226 10226 10226 10225 10222 10219 10216 10212 10207 10202 10198 10192 10185 10177 10165 10156 10145 10134 10124 10111 10100 10087 10075 10065 10054
10036 10046 10056 10066 10075 10086 10096 10104 10112 10119 10126 10133 10141 10148 10155 10162 10170 10176 10182 10188 10193 10196 10199 10201 10204 10206 10208 10209 10210 10211 10210 10209 10207 10204 10202 10198 10194 10189 10185 10180 10173 10164 10155 10144 10135 10125 10115 10103 10092 10081 10071 10059 10049 10038